Location: Marshall
(39.8477°N, 87.1868°W)
Time: 11:16:25
(UTC+00:00)

ISS - Visible Passes

Search period start: 08 May 2026 00:00
Search period end: 18 May 2026 00:00
Orbit: 414 x 424 km, 51.6° (Epoch: 8 May)

Date Brightness Start Highest point End Pass type
(mag) Time Alt. Az. Time Alt. Az. Time Alt. Az.
8 May -2.8 01:50:38 10° SSW 01:53:29 27° SE 01:56:22 10° ENE visible
8 May -2.0 03:27:07 10° W 03:29:47 33° NW 03:29:47 33° NW visible
8 May -0.3 06:46:42 12° NNE 06:46:42 12° NNE 06:47:21 10° NE visible
8 May -2.2 08:20:09 10° NW 08:23:17 36° NNE 08:26:26 10° E visible
8 May -2.7 09:57:08 10° WNW 10:00:00 26° SW 10:02:52 10° SSE visible
9 May -3.0 02:39:17 10° WSW 02:42:33 54° NW 02:45:52 10° NE visible
9 May -0.6 04:17:58 10° NW 04:19:57 15° NNW 04:20:45 14° N visible
9 May -1.2 07:36:50 20° ENE 07:36:50 20° ENE 07:38:27 10° E visible
9 May -3.6 09:10:02 15° WNW 09:12:31 46° SW 09:15:46 10° SSE visible
10 May -3.9 01:51:38 10° SW 01:54:58 87° SE 01:58:19 10° NE visible
10 May -0.9 03:29:43 10° WNW 03:32:08 18° NNW 03:34:34 10° NNE visible
10 May -0.2 05:08:57 10° NNW 05:09:26 11° N 05:09:26 11° N visible
11 May -1.3 02:41:34 10° W 02:44:21 24° NNW 02:47:10 10° NNE visible
11 May -0.4 04:20:54 10° NNW 04:22:06 11° N 04:23:17 10° NNE visible
12 May -2.0 01:53:33 10° W 01:56:38 34° NNW 01:59:44 10° NE visible
12 May -0.5 03:32:39 10° NW 03:34:12 13° N 03:35:46 10° NNE visible
12 May -0.3 05:10:33 10° NNW 05:11:10 12° N 05:11:10 12° N visible
13 May -0.7 02:44:20 10° NW 02:46:20 15° NNW 02:48:19 10° NNE visible
13 May -0.5 04:23:02 10° NNW 04:24:15 11° N 04:25:13 11° NNE visible
14 May -0.9 01:56:04 10° WNW 01:58:29 18° NNW 02:00:55 10° NNE visible
14 May -0.5 03:35:18 10° NNW 03:36:20 11° N 03:37:21 10° NNE visible
14 May -0.3 05:11:42 10° NNW 05:12:08 12° NNW 05:12:08 12° NNW visible
15 May -0.6 02:47:13 10° NNW 02:48:23 11° N 02:49:34 10° NNE visible
15 May -0.8 04:24:16 10° NNW 04:26:05 15° N 04:26:05 15° N visible
16 May -0.7 01:58:55 10° NW 02:00:27 13° N 02:02:01 10° NNE visible
16 May -0.8 03:36:49 10° NNW 03:38:24 13° N 03:40:00 10° NE visible
16 May -0.3 05:12:50 10° NW 05:12:57 11° NW 05:12:57 11° NW visible
17 May -0.7 02:49:16 10° NNW 02:50:28 11° N 02:51:40 10° NNE visible
17 May -1.0 04:25:21 10° NNW 04:26:53 19° N 04:26:53 19° N visible
